Regional Weather Roundup
Issued by NWS

Home | Current Version | Previous Version | Graphics & Text | Print | Product List | Glossary On
Versions: 1 2 3 4 5 6 7 8 9 10 11 12 13 14 15 16 17 18 19 20 21 22 23 24 25 26 27 28 29 30 31 32 33 34 35 36 37 38 39 40 41 42 43 44 45 46 47 48 49 50
000
ASUS43 KLSX 030010
RWRMO

WEATHER SUMMARY FOR MISSOURI
NATIONAL WEATHER SERVICE SPRINGFIELD MO
700 PM CDT WED SEP 02 2015

NOTE: "FAIR" INDICATES FEW OR NO CLOUDS BELOW 12,000 FEET WITH NO
       SIGNIFICANT WEATHER AND/OR OBSTRUCTIONS TO VISIBILITY.
       CURRENT SKY AND/OR WEATHER CONDITIONS ARE NOT AVAILABLE FOR
       CHILLICOTHE AND FARMINGTON.

MOZ001>031-035>038-043-044-053-054-030100-
...NORTHERN AND WESTERN MISSOURI...

CITY           SKY/WX    TMP DP  RH WIND       PRES   REMARKS
KANSAS CTY INT PTCLDY    84  68  58 S13       29.92S
6HR MIN TEMP:  81; 6HR MAX TEMP:  90;

KANSAS C DTWN  CLEAR     87  68  52 SW13      29.91S HX  90
6HR MIN TEMP:  82; 6HR MAX TEMP:  91;

LEE`S SUMMIT   CLEAR     85  67  54 S10G18    29.94S
6HR MIN TEMP:  84; 6HR MAX TEMP:  88;

ST JOSEPH      CLEAR     84  71  65 S9        29.89S
6HR MIN TEMP:  80; 6HR MAX TEMP:  88;

CHILLICOTHE      N/A     84  71  65 S3        29.93R
6HR MIN TEMP:  76; 6HR MAX TEMP:  90;

KIRKSVILLE     CLEAR     80  69  69 S7        29.96S
6HR MIN TEMP:  76; 6HR MAX TEMP:  87;


$$
MOZ066>068-077>081-088>096-101>105-030100-
...SOUTHWEST MISSOURI...

CITY           SKY/WX    TMP DP  RH WIND       PRES   REMARKS
SPRINGFIELD    CLEAR     84  68  58 S8        29.99S
6HR MIN TEMP:  84; 6HR MAX TEMP:  89;

JOPLIN         CLEAR     84  69  60 S9        29.97S
6HR MIN TEMP:  84; 6HR MAX TEMP:  88;


$$
MOZ032>034-039>042-045>050-055>058-069>072-030100-
...CENTRAL MISSOURI...

CITY           SKY/WX    TMP DP  RH WIND       PRES   REMARKS
COLUMBIA       CLEAR     83  71  67 SE5       29.98S
6HR MIN TEMP:  83; 6HR MAX TEMP:  87;

JEFFERSON CITY CLEAR     87  67  51 S6        29.96S HX  90
6HR MIN TEMP:  86; 6HR MAX TEMP:  90;

ROLLA          PTCLDY    82  66  58 S7        30.00R
6HR MIN TEMP:  82; 6HR MAX TEMP:  91;

SEDALIA        CLEAR     86  67  52 S6        29.97R
6HR MIN TEMP:  84; 6HR MAX TEMP:  92;

OSAGE BEACH    CLEAR     84  66  54 S3        29.99R

$$
MOZ051-052-059>065-030100-
...EAST CENTRAL MISSOURI...

CITY           SKY/WX    TMP DP  RH WIND       PRES   REMARKS
ST LOUIS INTL  MOCLDY    89  66  46 SW6       29.99S HX  91
6HR MIN TEMP:  89; 6HR MAX TEMP:  94;

SPIRIT OF STL  MOCLDY    83  75  77 CALM      29.97S HX  90
6HR MIN TEMP:  83; 6HR MAX TEMP:  91;

ST CHARLES     MOCLDY    85  69  58 SW3       29.97S
6HR MIN TEMP:  85; 6HR MAX TEMP:  92;


$$
MOZ072>076-082>087-097>100-106>115-030100-
...SOUTH CENTRAL AND SOUTHEAST MISSOURI...

CITY           SKY/WX    TMP DP  RH WIND       PRES   REMARKS
CAPE GIRARDEAU CLEAR     82  70  66 S5        29.98S
6HR MIN TEMP:  82; 6HR MAX TEMP:  91;

FARMINGTON     MOCLDY    82  72  69 CALM      30.03R
6HR MIN TEMP:  81; 6HR MAX TEMP:  90;

POPLAR BLUFF   CLEAR     84  72  67 CALM      29.97F
6HR MIN TEMP:  84; 6HR MAX TEMP:  91;

WEST PLAINS    PTCLDY    84  67  56 S7        30.03S
6HR MIN TEMP:  84; 6HR MAX TEMP:  89;


$$


USA.gov is the U.S. government's official web portal to all federal, state and local government web resources and services.